Wind_Speed
10 11 11 10 9 8 7 6 6 7 8 9 9 10 11 10 10 10 11 11 11 11 12 12 12 11 10 9 7 5 5 4 4 4 5 5 5 5 6 7 8 8 8
11 11 11 10 9 9 7 6 6 7 8 9 10 10 11 11 12 12 12 12 12 12 12 12 12 12 11 10 8 6 5 4 4 3 3 3 4 4 4 5 6 7 7
10 11 10 9 9 8 7 6 6 7 8 9 10 11 11 12 13 14 14 15 15 14 14 13 13 12 11 10 9 7 5 4 4 3 2 1 2 3 4 4 5 6 5
10 10 9 9 8 8 7 7 7 7 8 9 10 11 12 13 14 15 16 17 17 17 16 15 14 13 11 10 9 7 5 5 4 3 2 0 1 2 3 3 4 4 4
10 10 9 9 9 8 8 8 9 9 9 10 11 12 13 14 15 16 17 18 19 18 18 17 16 15 13 11 9 8 6 5 5 4 3 1 0 1 2 2 3 3 3
12 11 10 10 10 10 10 10 11 12 12 13 14 15 16 17 17 17 18 19 19 20 20 20 19 17 16 14 12 10 8 6 6 6 5 4 2 1 1 1 1 2 3
13 13 12 12 12 12 12 13 14 15 17 17 18 19 20 20 20 20 20 20 20 21 21 21 21 21 19 17 16 14 12 10 8 7 6 6 5 4 3 2 1 2 2
15 16 15 16 16 16 16 17 18 20 21 22 23 23 24 24 24 24 24 23 23 22 22 22 23 22 22 21 20 19 17 15 13 11 9 8 7 6 6 5 5 4 4
17 19 19 19 19 19 20 21 21 22 23 24 25 26 27 28 28 28 28 26 26 25 24 24 24 24 24 24 23 22 21 20 18 15 13 12 11 10 9 8 8 7 7
21 20 21 21 21 22 22 23 23 24 25 26 27 28 29 29 29 30 30 30 29 28 27 27 26 25 25 25 26 25 25 23 22 20 18 16 15 14 13 12 11 10 10
24 23 23 23 24 24 24 25 26 26 26 28 29 29 30 30 30 30 31 31 31 31 31 30 29 28 27 27 27 28 27 27 26 24 22 20 20 18 17 16 15 14 14
25 26 26 26 26 27 27 27 28 28 28 30 30 31 32 32 31 31 31 31 32 33 33 32 31 30 29 28 29 29 29 30 29 28 25 24 24 23 21 20 19 19 18
27 28 28 28 29 30 30 30 30 31 31 31 32 33 33 32 32 32 32 31 31 33 33 34 33 32 31 31 31 30 30 31 30 30 27 26 27 26 25 24 23 22 22
29 29 30 30 31 32 33 33 33 34 35 35 35 34 34 33 33 33 34 33 32 33 35 35 35 35 34 33 33 32 31 31 31 31 29 26 27 27 26 25 25 24 24
31 31 31 32 32 34 34 35 36 37 37 38 38 37 37 35 33 33 34 34 34 35 36 37 37 35 35 35 35 34 32 32 32 31 29 26 27 28 26 25 25 25 24
32 32 33 33 34 35 36 37 38 39 39 39 40 40 38 36 34 34 34 35 36 37 37 37 37 36 36 35 35 34 32 32 32 31 30 27 26 27 26 24 24 23 23
31 32 33 34 34 36 37 38 39 40 40 40 40 39 38 36 35 35 35 36 37 37 37 37 36 37 37 36 35 35 33 32 32 31 31 29 27 27 26 24 23 22 22
29 31 32 34 35 37 38 38 39 39 39 39 39 38 36 35 34 34 35 36 36 36 36 37 37 37 37 38 36 35 34 33 32 32 32 30 28 28 28 26 24 22 21
28 30 31 33 35 36 36 37 38 38 38 38 37 36 35 35 35 35 35 36 36 36 34 35 35 35 36 37 36 36 35 34 33 33 32 31 30 29 28 26 25 23 22
28 29 31 33 34 35 36 36 36 36 36 36 36 36 36 36 36 36 35 35 34 34 33 33 34 35 36 36 37 36 36 35 34 33 33 32 31 30 28 26 25 24 23
28 30 31 33 34 35 35 35 36 36 36 37 37 36 36 36 36 36 36 35 34 32 31 32 33 35 35 35 36 35 35 35 34 34 33 32 31 29 27 26 26 24 23
28 30 31 33 34 35 35 36 36 36 36 37 38 38 38 37 38 38 37 36 35 33 32 31 31 31 34 36 35 35 35 36 36 36 34 33 32 30 27 26 25 23 22
30 32 33 34 34 35 36 37 38 39 39 39 40 40 39 39 40 40 39 37 35 34 32 31 31 31 32 34 34 36 37 38 36 36 34 34 33 31 28 27 25 24 23
32 33 34 34 35 37 39 40 41 41 41 41 42 41 41 41 41 40 39 37 35 35 34 33 32 32 31 33 35 36 38 38 37 36 35 35 33 31 30 29 27 25 24
33 35 36 36 37 38 40 42 43 43 43 43 43 42 41 40 40 39 37 36 35 34 34 33 33 33 32 33 34 35 36 38 39 36 33 34 33 32 30 29 27 26 25
33 35 36 37 38 39 41 42 43 43 43 42 42 40 39 38 38 37 37 36 35 35 35 34 34 33 33 33 33 34 34 35 38 39 37 34 33 32 31 30 29 27 26
Wind_Direction
301 305 309 312 313 314 318 324 330 334 334 333 333 330 326 323 322 325 331 337 344 351 356 2 5 5 2 356 346 337 336 345 7 32 50 58 68 97 118 117 110 106 103
307 311 313 314 312 311 315 324 331 336 334 330 327 323 319 317 317 319 323 328 332 338 343 349 355 359 360 357 350 339 330 332 344 4 31 65 81 97 122 131 124 117 108
312 315 315 314 312 311 315 323 330 334 332 329 325 321 317 314 314 315 319 321 323 326 330 335 341 346 350 352 349 341 327 318 321 331 350 49 104 113 121 132 135 131 122
320 321 322 321 319 320 324 328 330 330 328 325 322 318 315 312 311 312 314 316 317 319 320 322 324 328 334 338 339 336 324 303 296 299 304 304 139 136 135 139 145 143 140
320 323 326 327 327 330 333 332 329 327 324 321 318 315 312 310 309 309 309 309 310 310 311 312 311 311 314 318 319 318 314 301 285 281 277 267 238 141 144 149 155 160 163
314 317 318 322 324 327 328 326 325 323 321 317 314 310 308 305 303 303 303 303 302 302 302 302 301 300 299 298 299 298 293 287 281 275 269 263 259 246 194 170 173 181 189
312 312 311 313 315 317 318 317 316 314 313 310 308 305 303 301 298 297 297 297 296 296 295 293 292 291 290 288 287 286 284 277 272 270 271 268 260 256 254 248 242 229 221
307 307 307 308 308 310 312 311 311 310 308 306 305 302 300 298 295 294 294 293 292 290 289 288 285 284 283 282 279 278 277 275 270 266 265 267 266 263 261 258 255 252 247
305 306 306 305 306 306 307 307 306 306 306 306 304 302 300 297 293 291 290 290 289 287 285 284 281 279 278 277 275 273 272 272 270 266 263 263 266 265 264 263 259 255 252
303 304 303 304 304 305 305 306 305 305 305 305 304 301 299 297 293 290 289 287 286 286 283 279 277 275 274 273 272 270 269 268 267 265 264 262 262 263 263 262 261 258 254
300 301 302 302 303 304 305 306 307 306 305 305 306 303 300 298 294 291 288 287 286 285 283 280 274 271 271 271 269 269 267 266 265 264 263 261 261 260 261 261 260 258 257
293 297 300 301 302 302 303 303 305 305 303 304 304 304 303 300 295 291 289 287 287 285 282 280 275 269 267 267 267 266 265 264 265 264 261 258 258 259 259 259 257 256 256
290 292 294 297 298 299 301 302 302 303 301 300 301 302 302 301 298 293 290 289 289 288 285 280 275 271 265 261 263 264 263 262 264 262 260 257 257 257 257 256 255 254 254
287 288 290 292 293 295 297 298 299 301 301 300 300 302 301 299 297 296 292 292 291 291 288 284 278 273 266 260 258 260 260 259 261 262 259 255 256 256 254 255 255 252 252
284 285 286 287 289 292 294 296 298 298 299 298 299 299 299 297 295 295 294 294 293 292 290 285 279 273 268 262 258 256 256 257 257 259 257 253 251 252 251 252 252 252 253
281 283 285 286 289 291 292 294 295 296 296 296 294 295 294 294 292 293 294 295 294 292 290 285 278 269 265 262 258 256 256 254 254 254 254 248 246 247 247 248 250 251 252
280 282 284 286 288 289 290 291 292 292 293 292 292 291 291 290 291 291 292 293 292 290 287 284 276 267 264 262 259 256 255 254 252 251 251 247 243 242 243 245 248 248 248
281 282 285 287 289 289 290 290 290 291 291 291 290 290 289 288 289 289 290 292 290 289 285 280 273 266 262 259 258 257 255 253 252 251 249 246 241 239 241 242 245 246 246
283 285 287 288 290 290 290 290 290 291 291 290 290 289 288 288 288 288 289 290 288 286 283 277 268 263 258 257 257 255 254 253 251 251 249 246 241 239 238 238 241 243 245
285 286 287 289 290 290 291 291 291 291 291 291 289 289 289 288 288 288 288 289 287 282 279 275 267 260 257 255 254 254 253 252 251 251 249 245 242 239 236 235 239 242 244
289 288 288 290 291 292 292 292 292 292 292 291 291 290 289 288 288 287 287 287 286 283 279 277 269 259 256 253 252 251 249 248 250 249 247 244 241 238 236 234 237 240 242
293 291 292 293 294 294 294 294 294 294 293 292 291 290 289 288 287 286 285 285 284 281 280 278 272 264 258 253 252 251 248 248 248 248 246 243 240 238 238 238 236 238 239
298 297 297 297 298 298 297 296 297 296 295 293 292 290 289 287 285 284 284 283 282 281 279 274 270 266 259 253 250 248 247 247 247 246 245 242 241 239 236 237 235 234 233
304 303 302 302 302 302 301 301 301 300 298 296 295 293 292 290 287 285 283 281 279 278 278 274 271 268 265 259 252 250 249 247 245 244 243 240 237 236 234 232 231 229 226
308 307 307 306 306 305 304 303 303 302 300 299 297 295 293 290 288 285 282 280 279 277 276 274 271 268 264 262 256 250 248 245 242 239 236 235 234 233 232 230 227 223 221
311 310 310 309 308 307 306 305 304 302 300 299 297 295 293 290 288 286 283 281 278 277 274 271 269 267 263 261 257 249 244 243 240 236 231 230 230 229 228 226 224 219 217
Height
5913 5913 5912 5912 5911 5911 5910 5909 5908 5908 5907 5907 5906 5906 5905 5905 5904 5904 5904 5903 5902 5901 5900 5899 5897 5896 5895 5894 5894 5894 5894 5894 5893 5893 5894 5894 5894 5894 5894 5895 5895 5896 5896
5913 5912 5912 5911 5911 5910 5909 5909 5908 5907 5907 5907 5906 5906 5905 5905 5904 5904 5903 5903 5902 5901 5900 5899 5898 5896 5895 5895 5894 5894 5894 5894 5894 5894 5894 5894 5895 5895 5896 5896 5897 5897 5897
5912 5912 5911 5910 5910 5910 5909 5908 5908 5907 5907 5907 5906 5906 5905 5905 5904 5903 5903 5902 5902 5901 5900 5899 5898 5897 5896 5895 5894 5894 5894 5894 5895 5895 5895 5895 5895 5896 5896 5897 5898 5898 5899
5912 5911 5911 5910 5909 5909 5908 5908 5907 5907 5907 5906 5906 5905 5905 5904 5904 5903 5902 5901 5901 5900 5900 5899 5898 5897 5896 5896 5895 5894 5894 5895 5895 5895 5895 5896 5896 5896 5897 5898 5898 5899 5900
5911 5911 5910 5910 5909 5908 5908 5907 5907 5906 5906 5905 5905 5904 5904 5903 5903 5902 5901 5900 5899 5899 5898 5898 5897 5897 5896 5895 5895 5894 5894 5895 5895 5895 5895 5895 5896 5896 5897 5898 5899 5899 5900
5910 5909 5909 5908 5908 5907 5906 5906 5906 5905 5904 5904 5903 5903 5902 5901 5901 5900 5899 5898 5897 5897 5896 5896 5896 5895 5895 5895 5894 5894 5894 5894 5894 5895 5895 5895 5895 5896 5897 5898 5898 5899 5900
5908 5907 5907 5907 5906 5906 5905 5904 5904 5903 5902 5901 5901 5900 5899 5898 5897 5897 5896 5895 5895 5894 5894 5894 5893 5893 5893 5893 5893 5893 5893 5893 5893 5894 5895 5894 5895 5895 5896 5897 5898 5899 5900
5906 5905 5905 5904 5904 5903 5903 5902 5901 5900 5899 5898 5897 5896 5895 5894 5893 5892 5892 5891 5891 5891 5890 5890 5890 5890 5890 5890 5891 5891 5891 5891 5892 5893 5893 5894 5894 5894 5895 5896 5897 5898 5899
5902 5902 5901 5901 5901 5900 5899 5898 5897 5896 5895 5894 5892 5891 5890 5889 5888 5887 5886 5886 5886 5886 5886 5886 5886 5886 5887 5887 5887 5887 5888 5888 5889 5890 5891 5892 5892 5893 5894 5894 5895 5897 5898
5898 5899 5898 5898 5897 5896 5895 5894 5893 5891 5890 5889 5887 5886 5884 5883 5882 5881 5880 5880 5880 5880 5880 5880 5881 5881 5882 5883 5883 5884 5884 5884 5885 5886 5888 5890 5890 5891 5892 5893 5894 5895 5896
5894 5895 5894 5894 5893 5892 5891 5890 5888 5887 5885 5884 5882 5880 5879 5877 5876 5875 5874 5873 5873 5873 5873 5873 5874 5875 5876 5877 5878 5879 5879 5880 5880 5882 5884 5886 5887 5888 5889 5890 5891 5892 5894
5891 5890 5890 5889 5888 5887 5886 5885 5884 5882 5880 5878 5876 5875 5873 5871 5869 5869 5868 5867 5866 5865 5865 5866 5867 5868 5869 5871 5872 5873 5874 5874 5875 5877 5879 5881 5882 5884 5885 5887 5888 5889 5891
5888 5886 5886 5885 5884 5882 5881 5879 5878 5876 5875 5873 5871 5869 5867 5865 5863 5861 5860 5860 5859 5857 5857 5858 5859 5860 5862 5864 5865 5867 5868 5869 5870 5871 5874 5876 5877 5879 5881 5882 5884 5885 5887
5883 5882 5881 5881 5879 5877 5875 5874 5872 5870 5868 5866 5864 5862 5860 5859 5857 5854 5853 5852 5851 5850 5849 5849 5851 5852 5854 5856 5858 5860 5862 5863 5864 5865 5868 5870 5872 5873 5875 5877 5879 5881 5883
5877 5876 5876 5875 5873 5872 5870 5868 5866 5864 5862 5859 5856 5855 5853 5852 5850 5848 5846 5844 5843 5842 5841 5840 5841 5843 5845 5847 5850 5853 5855 5857 5858 5859 5861 5864 5866 5867 5870 5872 5873 5876 5877
5871 5870 5869 5868 5868 5866 5864 5862 5859 5857 5855 5852 5850 5847 5845 5844 5843 5842 5840 5837 5835 5833 5832 5832 5832 5834 5836 5839 5842 5844 5847 5849 5852 5852 5854 5857 5859 5861 5864 5866 5868 5870 5872
5866 5864 5863 5862 5861 5859 5857 5855 5852 5850 5847 5845 5842 5839 5837 5836 5835 5834 5832 5830 5828 5825 5823 5823 5824 5825 5827 5830 5833 5836 5839 5842 5844 5846 5848 5851 5853 5855 5858 5861 5863 5865 5867
5860 5859 5857 5856 5854 5852 5849 5847 5844 5841 5839 5836 5834 5831 5829 5828 5827 5826 5824 5821 5819 5817 5815 5815 5816 5817 5819 5821 5824 5827 5830 5834 5837 5839 5841 5844 5846 5848 5851 5854 5857 5860 5862
5854 5853 5851 5849 5847 5844 5841 5839 5836 5833 5831 5828 5825 5823 5822 5820 5819 5817 5816 5813 5810 5808 5807 5806 5806 5808 5810 5812 5815 5819 5822 5825 5829 5831 5834 5836 5838 5841 5844 5847 5851 5854 5857
5849 5847 5845 5842 5840 5837 5834 5831 5828 5825 5823 5820 5817 5815 5814 5812 5810 5809 5808 5805 5803 5801 5799 5798 5798 5799 5801 5804 5806 5810 5814 5817 5820 5823 5826 5829 5832 5834 5836 5839 5844 5849 5852
5843 5841 5838 5836 5833 5829 5826 5823 5821 5818 5815 5811 5809 5807 5805 5803 5802 5800 5799 5797 5795 5793 5792 5791 5791 5791 5793 5795 5798 5801 5805 5809 5812 5815 5818 5822 5825 5828 5831 5834 5839 5843 5847
5836 5834 5831 5828 5825 5821 5818 5815 5812 5810 5807 5803 5800 5798 5796 5794 5792 5790 5790 5788 5787 5786 5785 5784 5783 5783 5785 5787 5790 5792 5796 5801 5804 5807 5811 5814 5818 5821 5825 5829 5833 5837 5841
5829 5825 5823 5819 5816 5813 5809 5806 5803 5800 5797 5793 5791 5788 5786 5784 5782 5780 5780 5779 5778 5778 5777 5776 5776 5777 5778 5779 5781 5784 5788 5791 5796 5800 5803 5807 5810 5814 5819 5823 5827 5831 5835
5821 5817 5814 5811 5808 5804 5799 5796 5792 5789 5786 5783 5780 5777 5775 5773 5771 5770 5769 5769 5769 5768 5768 5769 5769 5769 5770 5771 5773 5775 5779 5783 5787 5791 5794 5798 5802 5807 5812 5817 5821 5825 5829
5814 5810 5806 5802 5799 5795 5791 5786 5782 5778 5774 5771 5768 5766 5764 5762 5760 5759 5758 5758 5759 5759 5759 5760 5760 5761 5762 5763 5765 5767 5770 5773 5776 5782 5786 5790 5795 5799 5804 5809 5814 5819 5823
5807 5803 5798 5794 5790 5786 5782 5777 5772 5768 5764 5761 5758 5755 5753 5751 5749 5748 5747 5748 5748 5749 5749 5751 5752 5753 5754 5755 5757 5760 5761 5763 5767 5772 5777 5781 5786 5791 5797 5802 5807 5812 5817